Regional Weather Roundup
Issued by NWS Midland/Odessa, TX

Skip options and go directly to product.
Home | Oldest Version | Next Version | Current Version | All | Text Only | Save Text | Print | Product List | Glossary On

Skip product version selection by date and time.   
360
ASUS44 KMAF 241010
RWRMAF
MIDLAND AREA WEATHER ROUNDUP
NATIONAL WEATHER SERVICE MIDLAND TX
500 AM CDT TUE MAY 24 2016

...IN SOUTHWEST TEXAS AND SOUTHEAST NEW MEXICO...

CITY           SKY/WX    TMP DP  RH WIND       PRES   REMARKS
ALPINE         CLOUDY    64  58  80 S5        30.02R
ANDREWS        MOCLDY    72  67  87 S13G18    29.90R
ARTESIA        PTCLDY    59  23  25 SW8       29.87S
BIG SPRING     CLOUDY    70  67  90 S8        29.90R
CARLSBAD       CLEAR     61  51  70 CALM      29.86R
DRYDEN         NOT AVBL
FORT STOCKTON  CLEAR     71  65  81 S9        29.88R
GUAD PASS      NOT AVBL
HOBBS          CLEAR     66  66 100 S9        29.91S
MARFA          CLOUDY    52  49  89 NW5       30.01S
MIDLAND AIRPK  CLOUDY    76  68  76 S13G20    29.89R
MIDLAND INTL   CLOUDY    75  67  76 S14       29.88R
ODESSA         CLOUDY    75  66  73 S14       29.89R
PECOS          CLEAR     68  60  76 NE3       29.83S
PRESIDIO       FAIR      73  60  63 CALM      29.87S
SEMINOLE       CLOUDY    70  65  84 S14       29.90S
SNYDER           N/A     72  70  93 S9        29.88R
WINK           CLEAR     72  66  81 MISG      29.83F
$$
...OTHER STATIONS IN TEXAS...

CITY           SKY/WX    TMP DP  RH WIND       PRES   REMARKS
ABILENE        CLEAR     73  70  90 S15       29.85S
AMARILLO       PTCLDY    67  64  90 S17       29.86S
AUSTIN         MOCLDY    75  73  93 SE8       29.88R
BROWNSVILLE    CLOUDY    80  77  90 SE8       29.85F
CORPUS CHRISTI CLOUDY    79  76  90 E9        29.83F
DALLAS FTW     MOCLDY    75  69  81 S14       29.88R
DEL RIO        MOCLDY    77  65  66 SE9       29.82R
EL PASO        PTCLDY    76  19  11 W14G23    29.91S
HOUSTON INT    CLOUDY    72  72 100 SE7       29.92F
LUBBOCK        CLOUDY    69  65  86 S14       29.88R
SAN ANGELO     CLOUDY    77  70  79 S5        29.86R
SAN ANTONIO    CLOUDY    74  72  93 SE10      29.87S
WACO           CLOUDY    74  70  87 S12       29.90R
WICHITA FALLS  NOT AVBL
$$
...OTHER LOCATIONS IN NEW MEXICO...

CITY           SKY/WX    TMP DP  RH WIND       PRES   REMARKS
ALAMAGORDO     CLEAR     66  16  14 S9        29.93S
ALBUQUERQUE    CLEAR     58  18  21 CALM      29.96R
CANNON AFB     CLEAR     58  39  49 W3        29.90R
CLOVIS         CLEAR     57  48  72 S5        29.90S
HOLLOMAN AFB   CLEAR     61  19  19 SE7       29.91R
ROSWELL        PTCLDY    59  27  29 SW6       29.86S
RUIDOSO          N/A     57  14  18 SW16      30.06S
SANTA FE       CLEAR     42  22  44 NE5       29.99S WCI  39
TRUTH OR CONSE CLEAR     61  22  22 W3        29.93S
TUCUMCARI      CLEAR     58  30  34 SW9       29.82R
$$

USA.gov is the U.S. government's official web portal to all federal, state and local government web resources and services.